Theta_e
332 331 331 334 336 339 339 337 331 320 322 324 325 331 332 331 331 331 331 325 325 323 323 322 321 322 325 326 326 327 327 327 327 327 326 327 328 328
332 333 332 335 333 337 333 331 332 325 319 325 326 329 330 331 331 330 330 327 324 323 323 322 321 321 322 322 323 324 324 324 323 323 323 323 323 323
333 328 329 334 332 334 335 330 330 326 321 324 327 328 327 328 328 328 331 329 327 321 322 320 318 318 319 320 320 320 320 320 319 319 318 318 317 318
328 327 328 331 332 334 335 333 333 327 324 321 324 325 325 327 326 328 327 327 328 321 320 318 316 316 316 316 318 314 313 312 311 311 311 312 312 312
330 328 329 329 331 333 333 333 332 327 327 324 322 324 324 325 325 326 325 326 325 323 318 316 315 315 314 313 312 312 309 307 306 307 308 308 308 308
329 330 331 329 332 331 329 331 333 327 327 322 322 321 321 323 323 320 319 324 321 322 316 316 315 312 312 313 313 310 306 304 303 304 303 303 303 304
331 331 332 328 323 323 331 326 330 327 323 321 319 319 318 319 319 324 323 322 323 323 321 322 322 319 314 310 310 309 305 304 303 302 302 300 300 300
330 331 331 324 318 314 314 316 324 326 322 321 320 318 320 325 325 323 322 319 316 326 320 314 316 312 311 311 305 304 303 303 302 302 301 300 299 298
332 331 329 328 327 329 313 313 313 312 317 327 328 326 326 327 327 326 324 322 321 323 318 312 314 310 312 309 304 302 301 301 300 300 299 298 297 296
332 332 331 332 329 329 328 328 327 327 329 333 335 334 334 332 331 328 327 326 325 323 323 311 313 311 311 308 302 301 300 299 299 299 299 298 297 296
330 332 332 330 305 309 327 328 329 325 308 304 305 307 307 309 318 324 320 322 320 321 325 316 314 311 310 308 305 301 300 299 299 298 298 298 296 297
326 325 311 321 300 307 331 329 326 325 326 326 326 315 315 313 309 330 326 323 322 316 320 315 313 310 306 310 307 307 307 300 299 298 298 297 295 302
327 328 327 299 299 303 308 326 322 324 317 328 326 325 325 324 325 328 330 328 322 319 318 316 313 312 309 307 309 304 306 305 304 303 298 296 296 295
325 326 323 301 299 299 309 296 298 310 323 322 322 322 323 322 322 324 324 324 324 323 318 319 310 307 305 303 303 304 304 307 304 303 302 299 297 296
328 315 299 297 296 303 298 296 299 320 323 323 321 318 319 319 320 318 319 317 315 313 313 313 308 308 305 303 300 299 300 304 303 301 301 300 298 299
307 312 305 305 300 309 311 309 322 321 322 321 321 320 318 317 316 314 311 309 306 305 308 309 310 307 301 300 299 298 300 300 301 300 299 299 299 299
314 317 318 320 321 320 320 319 319 321 322 323 321 316 315 314 313 314 312 311 308 305 303 303 306 306 304 303 299 298 299 300 299 298 297 296 297 297
317 318 318 319 319 319 318 317 318 315 322 321 320 317 314 313 312 313 313 312 308 306 303 302 300 299 299 299 297 297 298 297 297 297 297 294 295 296
321 320 320 318 317 317 318 317 317 320 323 321 320 318 316 314 309 311 311 308 305 301 301 300 299 298 296 295 298 291 294 295 295 295 295 294 293 294
320 321 320 321 321 320 319 318 318 318 319 320 319 317 316 313 311 310 308 306 301 298 299 299 297 297 297 296 297 294 288 293 293 293 293 294 295 290
316 318 319 320 320 320 321 321 319 318 317 318 317 316 315 313 311 310 306 295 297 298 298 297 295 287 299 297 294 292 293 288 290 291 290 290 291 293
318 317 316 317 318 319 318 318 318 316 315 316 316 315 315 313 311 306 302 297 297 296 294 295 296 294 292 291 290 289 290 291 290 289 288 286 289 287
321 320 319 318 316 316 316 315 315 316 317 316 315 314 313 311 309 302 299 300 297 295 295 292 292 292 289 287 288 289 287 288 291 291 293 288 286 287
Wind_Speed
3 4 2 3 2 4 7 7 7 4 3 4 5 13 12 14 15 10 10 13 13 12 11 11 9 8 6 8 6 6 4 2 3 3 4 5 7 9
2 3 3 2 5 5 4 5 5 6 4 4 11 11 13 11 13 11 9 11 14 11 7 8 8 9 8 6 6 4 2 3 3 4 5 6 7 9
3 4 5 7 5 6 5 5 7 8 9 6 9 12 16 13 11 9 8 7 5 6 7 7 8 7 7 6 4 3 0 2 3 5 7 8 8 9
6 7 8 6 9 8 6 9 8 10 11 13 10 11 13 12 11 10 6 6 6 6 7 7 6 7 6 5 5 5 4 4 4 5 5 6 7 9
7 7 8 8 9 8 8 10 9 9 10 10 7 10 7 8 9 7 7 5 5 7 5 6 4 7 7 8 7 6 6 7 8 7 7 9 9 11
7 7 9 9 10 10 8 11 12 11 11 9 10 10 8 5 5 7 6 6 6 6 8 7 5 8 6 8 9 11 11 9 8 9 10 9 9 8
7 8 7 9 11 8 7 9 12 11 10 11 10 10 7 6 7 5 7 7 6 5 6 5 7 8 10 12 13 12 11 10 9 9 8 7 8 8
9 9 11 12 10 13 13 11 9 13 12 10 11 11 10 10 7 8 8 8 6 5 9 9 9 9 9 10 10 10 8 9 11 9 8 8 5 1
9 9 9 8 11 13 13 14 13 14 8 10 13 11 13 11 10 10 9 7 8 9 11 9 7 9 8 8 7 8 10 11 9 7 5 4 6 8
9 10 10 10 11 12 13 11 10 8 7 6 8 10 10 12 11 8 9 10 10 7 8 8 7 8 9 8 9 11 11 9 7 4 5 8 8 5
8 11 11 11 9 11 11 11 10 7 7 9 10 9 7 9 8 9 9 9 7 6 2 8 8 8 6 6 8 9 6 7 6 7 9 6 9 11
8 5 6 10 9 7 7 6 8 7 8 7 8 9 8 8 6 3 8 7 7 6 6 4 9 8 5 4 4 3 4 5 5 3 4 7 10 7
8 8 6 9 9 9 6 5 5 7 6 7 7 7 8 8 5 3 3 4 6 3 7 5 7 6 1 5 4 4 3 3 4 3 2 5 3 6
8 6 6 9 9 6 3 9 11 7 7 7 6 6 7 6 5 5 6 5 4 6 9 4 5 6 5 4 3 2 2 2 4 5 5 5 3 7
5 6 10 6 8 6 7 9 8 5 5 6 6 6 6 7 10 10 11 14 14 11 7 6 7 6 4 4 4 3 3 1 4 5 6 6 7 7
7 5 6 6 5 6 5 5 3 4 5 5 7 7 7 8 8 9 10 9 10 8 9 8 8 7 7 6 5 4 3 2 4 5 6 5 5 6
8 6 5 5 5 5 4 5 4 5 6 5 8 8 8 8 7 8 8 7 7 8 7 7 9 9 8 4 4 4 3 3 4 6 6 6 5 5
5 6 6 6 7 7 7 7 6 6 6 7 8 9 9 10 9 8 7 6 8 8 8 7 6 6 5 6 11 4 3 4 4 4 5 6 5 4
7 8 8 8 8 8 7 8 8 7 7 7 8 9 9 9 10 9 8 8 8 7 7 6 4 3 3 1 5 11 5 4 5 4 4 6 6 6
8 8 9 8 8 9 9 8 8 7 8 8 8 9 9 10 11 10 9 10 9 8 8 7 6 4 2 3 1 3 5 4 4 5 6 6 4 4
10 10 9 9 9 9 9 9 10 9 8 8 8 8 9 10 10 9 8 8 7 5 8 5 7 2 5 3 1 1 2 7 4 6 7 6 6 4
11 11 11 10 10 9 9 9 9 9 10 10 11 11 11 11 10 10 10 10 6 6 7 5 5 3 2 1 1 3 3 4 5 4 5 4 6 6
12 11 10 10 10 10 10 10 11 11 11 10 8 9 10 10 12 12 14 14 11 8 10 5 4 4 3 2 1 3 5 5 4 4 3 5 6 8
Wind_Direction
186 163 179 220 147 155 159 153 145 124 107 122 114 115 127 123 129 125 123 108 111 111 120 129 134 155 182 153 173 177 199 253 282 296 307 310 302 300
176 141 137 153 134 134 116 133 84 89 75 39 108 116 120 109 114 111 123 119 114 133 166 142 156 171 165 167 178 187 219 256 290 300 299 300 299 296
117 120 150 162 137 133 121 113 110 113 112 104 118 112 107 110 109 107 112 112 125 134 146 153 166 159 156 175 174 189 270 14 336 345 356 358 355 355
109 109 122 135 135 127 123 114 120 123 113 123 122 111 107 113 115 119 125 126 131 145 142 150 151 150 151 137 123 106 93 54 39 47 48 44 39 37
118 123 126 122 136 136 128 123 116 113 116 119 105 115 111 122 117 108 104 104 106 113 125 109 116 117 123 124 130 106 89 77 70 70 73 69 63 51
101 113 126 134 130 131 122 126 121 116 112 111 121 118 119 100 105 133 127 134 125 137 74 77 115 90 98 101 102 89 83 88 82 72 60 55 50 41
108 104 111 103 99 106 120 122 124 119 120 122 121 122 127 147 152 153 143 136 119 122 116 105 113 105 103 85 91 87 80 72 71 67 63 56 45 32
115 107 113 111 101 95 88 86 124 130 125 126 136 144 151 161 153 163 152 155 131 140 111 101 105 101 95 89 67 75 81 81 78 79 81 72 69 50
118 121 112 113 128 117 99 99 91 77 85 146 145 154 164 167 158 167 165 160 122 134 122 108 112 102 107 89 56 84 91 90 87 77 69 50 31 26
125 126 125 134 128 132 120 122 114 125 135 129 139 154 157 159 165 157 137 112 114 134 137 123 132 118 115 101 74 83 84 84 82 81 54 31 9 332
123 126 131 119 117 114 122 128 127 117 77 69 75 89 106 138 141 142 150 150 132 142 161 128 157 139 145 126 106 102 103 87 73 53 36 12 334 276
105 98 116 124 117 111 122 132 137 136 138 130 112 99 125 121 140 184 164 163 137 141 155 137 162 157 168 146 121 82 114 90 85 64 47 25 357 354
141 147 126 111 102 86 73 106 104 137 128 138 121 110 129 143 162 127 156 173 156 119 149 141 175 180 227 142 158 70 43 66 13 17 164 76 30 13
145 143 141 144 139 120 117 118 116 133 139 140 134 122 120 125 118 112 98 91 61 97 140 162 150 176 149 145 139 94 78 92 1 359 349 354 209 179
152 97 95 108 115 113 105 128 150 149 144 147 141 130 121 112 119 114 101 96 81 75 79 93 119 123 118 110 116 65 352 88 356 354 350 349 359 359
125 96 90 102 66 100 137 154 164 169 170 162 148 129 130 142 134 135 129 123 113 101 75 73 97 107 106 94 82 72 41 350 351 5 342 350 1 12
133 142 150 162 164 160 160 162 171 173 180 158 157 157 153 153 151 156 152 158 139 139 123 96 79 76 76 87 95 48 14 354 357 356 350 348 359 8
160 171 177 183 187 183 186 181 187 187 179 173 169 167 167 171 162 167 172 165 147 147 140 142 144 129 128 94 18 18 5 344 349 352 347 336 332 9
204 192 194 194 199 199 198 198 197 197 179 184 180 177 173 174 167 171 170 163 149 136 142 143 131 142 173 221 120 22 330 350 334 344 343 340 323 341
219 210 210 207 208 207 206 207 204 188 196 189 185 181 180 173 180 177 175 167 152 146 133 125 99 54 49 35 350 90 27 344 349 338 344 332 308 202
213 223 223 218 212 211 213 211 207 201 195 188 186 183 184 185 185 179 160 122 106 108 117 60 57 53 76 39 285 244 114 106 11 345 345 324 330 308
211 216 219 221 219 217 213 211 206 195 191 190 189 187 185 188 176 155 140 135 107 105 92 113 116 76 81 93 321 303 323 357 154 164 105 11 336 333
216 217 219 219 220 218 214 208 206 204 204 203 193 189 180 179 168 159 154 141 129 127 132 147 117 90 93 83 16 319 321 330 340 325 327 85 356 324